{"data":{"norad_id":61006,"intl_designator":"2024-158S","name":"STARLINK-32282","alt_names":[],"object_type":"PAYLOAD","status":"ACTIVE","operator":null,"country":"US","launch_date":"2024-09-05","launch_site_code":"AFETR","launch_vehicle":null,"mission":null,"orbit_class":"UNKNOWN","rcs_meters":null,"size_class":null,"mass_kg":null,"dimensions":null,"purposes":["comms"],"wikipedia_slug":null,"has_3d_model":false,"image_url":null,"decayed_at":null,"tle_current":{"epoch":"2026-09-21T07:12:48.002112Z","epoch_age_seconds":123178,"freshness":"FRESH","line1":"1 61006U 24158S   26264.30055558  .00002204  00000+0  76349-4 0  9994","line2":"2 61006  53.1601 233.8535 0001287  91.8599 268.2551 15.34393360115642","mean_motion":15.3439336,"eccentricity":0.0001287,"inclination_deg":53.1601,"raan_deg":233.8535,"arg_perigee_deg":91.8599,"mean_anomaly_deg":268.2551,"bstar":7.6349e-5,"rev_number":11564,"period_min":93.84816420217,"perigee_km":461.84255707871,"apogee_km":463.60339443647,"semimajor_km":6840.8599757576,"source":"CELESTRAK","updated_at":"2026-09-22T09:00:49.297840Z"}}}